STARLINK-32730 (62447 NORAD) Tracking and Keplerian Element Data

This shows tracking and keplerian element data for the satellite.

Feedback or suggestion? Click here.




ElementValue
Catalog62447
NameSTARLINK-32730
Epoch Orbit671
Epoch Day34.49836095
Epoch Year2025
RAAN37.8012
Inclination53.1598
Eccentricity6.97E-05
Argument of Perigee77.4515
Mean Anonmoly282.6571
Mean Motion15.48516609
Decay Rate-0.00206414
L11 62447U 24251R 25034.49836095 -.00206414 00000+0 -39097-2 0 9993
L22 62447 53.1598 37.8012 0000697 77.4515 282.6571 15.48516609 6718



Live tracking and technical data element details for STARLINK-32730 (NORAD 62447). STARLINK-32730 can be tracked NOW for your location showing map with azimuth and elevation plus other details from your city location.







IsCatalogInMostPopularTable: catalog: 62447, numindb: 30
Update: records affected: 1



GetName: 62447 STARLINK-32730

Hit Count: updated at: Sun, 18 May 2025 22:10:07 GMT